Regional Weather Roundup
Issued by NWS

Home | Current Version | Previous Version | Text Only | Print | Product List | Glossary On
Versions: 1 2 3 4 5 6 7 8 9 10 11 12 13 14 15 16 17 18 19 20 21 22 23 24 25 26 27 28 29
000
ASUS44 KBMX 292010
RWRAL

ALABAMA REGIONAL WEATHER ROUNDUP
NATIONAL WEATHER SERVICE BIRMINGHAM AL
300 PM CDT WED MAR 29 2017

NOTE: "FAIR" INDICATES FEW OR NO CLOUDS BELOW 12,000 FEET
WITH NO SIGNIFICANT WEATHER AND/OR OBSTRUCTIONS TO VISIBILITY.

THE REMARK "TC" DENOTES TEMPERATURE IN DEGREES CELSIUS.

ALZ001>011-014-016>018-020-292100-
NORTH ALABAMA

CITY           SKY/WX    TMP DP  RH WIND       PRES   REMARKS
MUSCLE SHOALS  PTSUNNY   84  61  45 S12       29.95F
HUNTSVILLE     MOSUNNY   82  64  54 S9        29.97F
DECATUR        PTSUNNY   80  65  59 CALM      29.97F
HALEYVILLE     FAIR      80  61  52 S13       29.99F
GADSDEN        SUNNY     82  63  52 VRB3      29.99F
$$

ALZ012-013-022-023-030>036-040>044-292100-
WEST CENTRAL ALABAMA

CITY           SKY/WX    TMP DP  RH WIND       PRES   REMARKS
TUSCALOOSA     MOSUNNY   81  59  47 S7        29.97F
$$

ALZ015-024>027-033>036-040>044-292100-
CENTRAL ALABAMA

CITY           SKY/WX    TMP DP  RH WIND       PRES   REMARKS
BIRMINGHAM     MOSUNNY   81  60  48 S5        30.01F
MONTGOMERY     MOSUNNY   85  55  35 S12       30.00F
SHELBY CO ARPT MOSUNNY   80  61  52 W6        30.00F
MAXWELL AFB    MOSUNNY   83  63  50 CALM      29.99F
GREENVILLE     PTSUNNY   82  53  36 S9        30.00F
$$

ALZ019-021-028-029-037-038-045>048-292100-
EAST CENTRAL ALABAMA

CITY           SKY/WX    TMP DP  RH WIND       PRES   REMARKS
ANNISTON       MOSUNNY   83  63  50 W8        29.99F
ALEXANDER CITY MOSUNNY   82  61  48 SW8       30.01F
AUBURN         MOSUNNY   81  61  50 VRB6      30.02F
$$

ALZ051>064-292100-
SOUTHWEST ALABAMA

CITY           SKY/WX    TMP DP  RH WIND       PRES   REMARKS
MOBILE         MOSUNNY   79  60  52 S9G22     30.00F
BROOKLEY FIELD MOSUNNY   79  68  69 SE14      30.01F
EVERGREEN      MOSUNNY   84  58  40 S12       30.00F
$$

ALZ049-050-065>069-292100-
SOUTHEAST ALABAMA

CITY           SKY/WX    TMP DP  RH WIND       PRES   REMARKS
DOTHAN         SUNNY     85  53  33 SW10G18   30.04F
OZARK          SUNNY     84  55  37 W12       30.00F
TROY           MOSUNNY   84  56  38 S10G16    30.01F
EUFAULA        FAIR      89  55  31 VRB7      29.98F
$$




USA.gov is the U.S. government's official web portal to all federal, state and local government web resources and services.